Weather History for KIYA - March, 2013

Change the Weather History Date:

Monday, March 25, 2013

  Actual Average (KARA) Record (KARA)
Temperature  
Mean Temperature 50 °F 64 °F  
Max Temperature 61 °F 75 °F 85 °F (1949)
Min Temperature 38 °F 53 °F 33 °F (2006)
Degree Days  
Heating Degree Days 16 4  
Month to date heating degree days 129  
Since 1 July heating degree days 1345  
Cooling Degree Days 0 2  
Month to date cooling degree days 35  
Year to date cooling degree days 66  
Moisture  
Dew Point 30 °F    
Average Humidity 49    
Maximum Humidity 77    
Minimum Humidity 26    
Precipitation  
Precipitation 0.00 in 0.14 in 3.93 in (1973)
Month to date precipitation 3.03  
Year to date precipitation 12.44  
Sea Level Pressure  
Sea Level Pressure 30.21 in    
Wind  
Wind Speed 12 mph (NNW)    
Max Wind Speed 22 mph    
Max Gust Speed 28 mph    
Visibility 10 miles    
Events      
T = Trace of Precipitation, MM = Missing Value Source: NWS Daily Summary

Daily Weather History Graph

Daily Weather History Graph

Search for Another Location

Airport or City:

Trip Planner

Search our weather history database for the weather conditions in past years. The results will help you decide how hot, cold, wet, or windy it might be!

Date:

Astronomy

Mar. 25, 2013 Rise Set
Actual Time 7:05 AM CDT 7:22 PM CDT
Civil Twilight 6:41 AM CDT 7:46 PM CDT
Nautical Twilight 6:13 AM CDT 8:14 PM CDT
Astronomical Twilight 5:45 AM CDT 8:43 PM CDT
Moon 5:58 PM CDT (3/25) 5:43 AM CDT (3/25)
Length of Visible Light 13h 05m
Length of Day
12h 17m
Waxing Gibbous, 96% of the Moon is Illuminated
Mar 25
Waxing Gibbous
Mar 27
Full
Apr 2
Last Quarter
Apr 10
New
Apr 18
First Quarter

Hourly Weather History & Observations

Time (CDT) Temp. Windchill Dew Point Humidity Pressure Visibility Wind Dir Wind Speed Gust Speed Precip Events Conditions
12:15 AM 47.3 °F - 33.4 °F 59% 30.09 in 10.0 mi North 13.8 mph 19.6 mph N/A   Clear
12:55 AM 46.4 °F 41.5 °F 32.4 °F 58% 30.11 in 10.0 mi North 10.4 mph - N/A   Clear
1:15 AM 46.6 °F - 32.0 °F 57% 30.12 in 10.0 mi North 11.5 mph 24.2 mph N/A   Clear
1:35 AM 45.7 °F 40.2 °F 32.2 °F 59% 30.12 in 10.0 mi North 11.5 mph 19.6 mph N/A   Clear
1:55 AM 44.6 °F 39.7 °F 32.5 °F 63% 30.13 in 10.0 mi North 9.2 mph - N/A   Clear
2:15 AM 43.2 °F 37.9 °F 32.9 °F 67% 30.13 in 10.0 mi North 9.2 mph - N/A   Clear
2:35 AM 43.9 °F 38.3 °F 32.7 °F 65% 30.12 in 10.0 mi North 10.4 mph 16.1 mph N/A   Clear
2:55 AM 43.9 °F 38.3 °F 32.4 °F 64% 30.12 in 10.0 mi North 10.4 mph 19.6 mph N/A   Clear
3:15 AM 43.2 °F 37.0 °F 32.4 °F 66% 30.12 in 10.0 mi NNW 11.5 mph - N/A   Clear
3:55 AM 41.4 °F 35.7 °F 32.7 °F 71% 30.12 in 10.0 mi NNW 9.2 mph - N/A   Clear
4:15 AM 41.2 °F 36.0 °F 32.5 °F 71% 30.12 in 10.0 mi NNW 8.1 mph - N/A   Clear
4:55 AM 40.1 °F 34.7 °F 32.0 °F 73% 30.13 in 10.0 mi NNW 8.1 mph - N/A   Clear
5:35 AM 40.1 °F 33.6 °F 31.1 °F 70% 30.14 in 10.0 mi NNW 10.4 mph - N/A   Clear
5:55 AM 39.7 °F 33.2 °F 31.3 °F 72% 30.15 in 10.0 mi NNW 10.4 mph - N/A   Clear
6:15 AM 39.4 °F 33.2 °F 31.6 °F 74% 30.16 in 10.0 mi NNW 9.2 mph - N/A   Clear
6:35 AM 38.7 °F 31.8 °F 32.0 °F 77% 30.17 in 10.0 mi NNW 10.4 mph - N/A   Clear
6:55 AM 39.2 °F 32.5 °F 31.8 °F 75% 30.18 in 10.0 mi NNW 10.4 mph - N/A   Clear
7:15 AM 38.5 °F 32.1 °F 31.6 °F 76% 30.19 in 10.0 mi NNW 9.2 mph - N/A   Clear
7:35 AM 39.2 °F 33.6 °F 32.0 °F 75% 30.20 in 10.0 mi North 8.1 mph - N/A   Clear
7:55 AM 40.5 °F 35.1 °F 32.0 °F 72% 30.21 in 10.0 mi North 8.1 mph - N/A   Clear
8:15 AM 41.7 °F 35.6 °F 31.8 °F 68% 30.22 in 10.0 mi North 10.4 mph - N/A   Clear
8:35 AM 42.8 °F 35.8 °F 30.6 °F 62% 30.23 in 10.0 mi North 13.8 mph - N/A   Clear
8:55 AM 44.1 °F 37.4 °F 29.7 °F 57% 30.24 in 10.0 mi North 13.8 mph - N/A   Clear
9:15 AM 45.5 °F 39.6 °F 28.6 °F 52% 30.25 in 10.0 mi NNW 12.7 mph - N/A   Clear
9:35 AM 46.4 °F 40.7 °F 27.1 °F 47% 30.26 in 10.0 mi NNW 12.7 mph - N/A   Clear
9:55 AM 47.3 °F - 27.0 °F 45% 30.27 in 10.0 mi North 15.0 mph 19.6 mph N/A   Clear
10:15 AM 48.4 °F - 26.8 °F 43% 30.27 in 10.0 mi NNW 15.0 mph - N/A   Clear
10:55 AM 51.1 °F - 27.0 °F 39% 30.28 in 10.0 mi North 13.8 mph 19.6 mph N/A   Clear
11:15 AM 52.5 °F - 25.9 °F 36% 30.28 in 10.0 mi North 15.0 mph - N/A   Clear
11:35 AM 54.0 °F - 26.4 °F 35% 30.27 in 10.0 mi North 13.8 mph 20.7 mph N/A   Clear
11:55 AM 54.7 °F - 27.3 °F 35% 30.27 in 10.0 mi NNW 17.3 mph - N/A   Clear
12:15 PM 54.7 °F - 26.6 °F 34% 30.26 in 10.0 mi NNW 15.0 mph 19.6 mph N/A   Clear
12:35 PM 55.9 °F - 27.3 °F 33% 30.25 in 10.0 mi North 11.5 mph 18.4 mph N/A   Clear
12:55 PM 56.7 °F - 26.4 °F 31% 30.24 in 10.0 mi NNW 19.6 mph 24.2 mph N/A   Clear
1:15 PM 57.4 °F - 27.0 °F 31% 30.24 in 10.0 mi North 17.3 mph 23.0 mph N/A   Clear
1:35 PM 57.4 °F - 27.9 °F 32% 30.24 in 10.0 mi NNW 13.8 mph 21.9 mph N/A   Clear
1:55 PM 57.9 °F - 26.4 °F 30% 30.23 in 10.0 mi NNW 21.9 mph 27.6 mph N/A   Clear
2:15 PM 58.3 °F - 27.9 °F 31% 30.22 in 10.0 mi NNW 18.4 mph 23.0 mph N/A   Clear
2:35 PM 58.8 °F - 27.9 °F 31% 30.21 in 10.0 mi NNW 17.3 mph 23.0 mph N/A   Clear
2:55 PM 59.4 °F - 26.1 °F 28% 30.20 in 10.0 mi NNW 18.4 mph 25.3 mph N/A   Clear
3:15 PM 59.9 °F - 27.3 °F 29% 30.19 in 10.0 mi NNW 16.1 mph 24.2 mph N/A   Clear
3:35 PM 60.8 °F - 27.3 °F 28% 30.18 in 10.0 mi NNW 16.1 mph 26.5 mph N/A   Clear
3:55 PM 61.2 °F - 27.3 °F 28% 30.17 in 10.0 mi NNW 15.0 mph 21.9 mph N/A   Clear
4:15 PM 61.5 °F - 27.1 °F 27% 30.18 in 10.0 mi NNW 19.6 mph 25.3 mph N/A   Clear
4:35 PM 61.7 °F - 27.5 °F 27% 30.18 in 10.0 mi NNW 11.5 mph 23.0 mph N/A   Clear
4:55 PM 61.7 °F - 26.4 °F 26% 30.17 in 10.0 mi NW 15.0 mph 21.9 mph N/A   Clear
5:15 PM 61.7 °F - 26.1 °F 26% 30.18 in 10.0 mi NNW 11.5 mph 21.9 mph N/A   Clear
5:35 PM 61.9 °F - 26.8 °F 26% 30.18 in 10.0 mi WNW 15.0 mph 18.4 mph N/A   Clear
5:55 PM 60.8 °F - 25.9 °F 26% 30.18 in 10.0 mi NNW 15.0 mph 21.9 mph N/A   Clear
6:15 PM 60.3 °F - 27.0 °F 28% 30.18 in 10.0 mi NW 12.7 mph 19.6 mph N/A   Clear
6:55 PM 57.9 °F - 27.3 °F 31% 30.19 in 10.0 mi NW 11.5 mph - N/A   Clear
7:15 PM 56.1 °F - 27.3 °F 33% 30.20 in 10.0 mi NW 9.2 mph - N/A   Clear
7:35 PM 54.7 °F - 27.7 °F 35% 30.21 in 10.0 mi WNW 5.8 mph - N/A   Clear
7:55 PM 51.8 °F - 29.3 °F 42% 30.21 in 10.0 mi WNW 5.8 mph - N/A   Clear
8:15 PM 50.5 °F - 30.6 °F 46% 30.22 in 10.0 mi WNW 6.9 mph - N/A   Clear
8:35 PM 50.0 °F - 31.5 °F 49% 30.24 in 10.0 mi WNW 5.8 mph - N/A   Clear
8:55 PM 48.9 °F - 31.6 °F 51% 30.24 in 10.0 mi WNW 6.9 mph - N/A   Clear
9:15 PM 49.1 °F - 31.6 °F 51% 30.25 in 10.0 mi WNW 5.8 mph - N/A   Clear
9:35 PM 47.1 °F - 32.4 °F 57% 30.26 in 10.0 mi North 4.6 mph - N/A   Clear
9:55 PM 46.9 °F - 32.5 °F 57% 30.27 in 10.0 mi NNW 4.6 mph - N/A   Clear
10:15 PM 47.8 °F - 32.2 °F 55% 30.28 in 10.0 mi NW 6.9 mph - N/A   Clear
10:35 PM 45.3 °F 41.6 °F 32.5 °F 61% 30.29 in 10.0 mi NW 6.9 mph - N/A   Clear
10:55 PM 44.8 °F 42.4 °F 32.9 °F 63% 30.30 in 10.0 mi NW 4.6 mph - N/A   Clear
11:15 PM 45.0 °F 41.2 °F 32.5 °F 62% 30.31 in 10.0 mi NNW 6.9 mph - N/A   Clear
11:35 PM 44.6 °F 40.7 °F 32.2 °F 62% 30.31 in 10.0 mi NNW 6.9 mph - N/A   Clear
11:55 PM 44.2 °F 39.7 °F 32.0 °F 62% 30.31 in 10.0 mi NNW 8.1 mph - N/A   Clear